Location: Bronnegerveen
(52.9548°N, 6.8388°E)
Time: 01:40:58
(UTC+00:00)

Cosmos 968 Rocket - Pass Details

Date: 15 June 2025
Orbit: 736 x 766 km, 74.0° (Epoch: 07 July)

Event Time Altitude Azimuth Distance (km) Brightness Sun altitude
Exits shadow 01:38:00 - 236° (SW) 2,436 5.6 -9.0°
Reaches altitude 10° 01:38:25 10° 238° (WSW) 2,289 5.4 -9.0°
Maximum altitude 01:43:16 39° 307° (NW) 1,138 4.5 -8.7°
Drops below altitude 10° 01:48:12 10° 16° (NNE) 2,316 7.5 -8.3°
Sets 01:50:45 0° 24° (NNE) 3,248 9.0 -8.1°
